DW8632 Weather Reports


time (UTC)temp
C
wind
direction
speed
KPH
gust
KPH
rain 1hr
cm
rain 24hr
cm
rain mn
cm
humidity
%
barometer
mb
20220812003038 31 298 6.4 14.5 0.00 0.00 0.00 44 1003.6
20220812001545 32 320 6.4 12.9 0.00 0.00 0.00 42 1003.6
20220812000102 32 289 8.0 14.5 0.00 0.00 0.00 41 1003.5
20220811234605 32 310 3.2 12.9 0.00 0.00 0.00 40 1003.6
20220811233045 33 336 4.8 9.7 0.00 0.00 0.00 41 1003.5
20220811231545 32 76 0.0 4.8 0.00 0.00 0.00 42 1003.5
20220811230037 32 43 0.0 4.8 0.00 0.00 0.00 42 1003.6
20220811224529 32 117 0.0 1.6 0.00 0.00 0.00 42 1003.8
20220811223052 32 117 0.0 3.2 0.00 0.00 0.00 42 1003.8
20220811221524 33 117 0.0 3.2 0.00 0.00 0.00 40 1003.8
20220811220035 33 128 1.6 6.4 0.00 0.00 0.00 39 1003.9
20220811214552 32 175 1.6 4.8 0.00 0.00 0.00 41 1004.0
20220811213018 32 297 1.6 9.7 0.00 0.00 0.00 39 1004.1
20220811211522 33 74 0.0 8.0 0.00 0.00 0.00 41 1004.3
20220811210013 33 36 3.2 6.4 0.00 0.00 0.00 41 1004.2
20220811204506 32 134 1.6 14.5 0.00 0.00 0.00 41 1004.3
20220811203002 31 319 1.6 6.4 0.00 0.00 0.00 43 1004.5
20220811201558 31 257 3.2 8.0 0.00 0.00 0.00 43 1004.9
20220811194556 30 250 1.6 19.3 0.00 0.00 0.00 45 1005.1
20220811193030 30 185 0.0 11.3 0.00 0.00 0.00 46 1005.3
20220811191542 30 170 3.2 8.0 0.00 0.00 0.00 48 1005.5
20220811190049 30 172 0.0 6.4 0.00 0.00 0.00 49 1005.6
20220811184544 28 188 3.2 16.1 0.00 0.00 0.00 51 1005.8
20220811183025 28 192 8.0 17.7 0.00 0.00 0.00 52 1006.1
20220811181525 27 162 6.4 17.7 0.00 0.00 0.00 55 1006.1
20220811180031 27 186 9.7 22.5 0.00 0.00 0.00 54 1005.9
20220811174527 27 168 8.0 20.9 0.00 0.00 0.00 56 1006.1
20220811173014 26 160 11.3 17.7 0.00 0.00 0.00 57 1006.1
20220811171510 26 180 9.7 16.1 0.00 0.00 0.00 59 1006.3
20220811170010 25 155 8.0 17.7 0.00 0.00 0.00 64 1006.5
20220811164505 23 175 8.0 16.1 0.00 0.00 0.00 66 1006.6
20220811163058 23 169 8.0 20.9 0.00 0.00 0.00 67 1006.8
20220811161556 23 142 9.7 20.9 0.00 0.00 0.00 67 1007.0
20220811160104 23 166 8.0 16.1 0.00 0.00 0.00 69 1006.8
20220811154554 23 159 9.7 19.3 0.00 0.00 0.00 68 1006.6
20220811153053 22 150 6.4 14.5 0.00 0.00 0.00 70 1006.7
20220811151538 22 153 9.7 16.1 0.00 0.00 0.00 69 1007.1
20220811150034 21 140 6.4 19.3 0.00 0.00 0.00 70 1007.1
20220811144544 21 152 6.4 17.7 0.00 0.00 0.00 71 1007.2
20220811143039 21 131 3.2 22.5 0.00 0.00 0.00 72 1006.7
20220811141545 21 115 4.8 20.9 0.00 0.00 0.00 74 1006.4
20220811140034 21 146 0.0 14.5 0.00 0.00 0.00 74 1006.8
20220811134527 20 144 0.0 8.0 0.00 0.00 0.00 74 1007.2
20220811133030 20 115 3.2 14.5 0.00 0.00 0.00 74 1007.4
20220811131526 20 92 3.2 9.7 0.00 0.00 0.00 72 1007.7
20220811130038 20 80 4.8 22.5 0.00 0.00 0.00 71 1007.6
20220811124522 20 102 6.4 17.7 0.00 0.00 0.00 71 1007.7
20220811123026 20 76 1.6 6.4 0.00 0.00 0.00 70 1007.8
20220811121520 20 55 1.6 11.3 0.00 0.00 0.00 68 1007.9
20220811120014 20 89 1.6 16.1 0.00 0.00 0.00 67 1007.9
20220811114514 20 96 4.8 14.5 0.00 0.00 0.00 67 1007.5
20220811113010 21 88 3.2 12.9 0.00 0.00 0.00 66 1007.6
20220811111507 21 96 4.8 14.5 0.00 0.00 0.00 66 1007.6
20220811110019 21 86 4.8 14.5 0.00 0.00 0.00 66 1007.7
20220811104504 21 90 4.8 12.9 0.00 0.00 0.00 66 1007.7
20220811103009 21 108 6.4 16.1 0.00 0.00 0.00 65 1007.6
20220811101600 21 101 0.0 4.8 0.00 0.00 0.00 64 1008.1
20220811100112 21 74 0.0 8.0 0.00 0.00 0.00 62 1008.4
20220811094538 21 75 1.6 9.7 0.00 0.00 0.00 61 1008.7
20220811093039 21 86 1.6 12.9 0.00 0.00 0.00 60 1008.9
20220811091542 21 109 1.6 11.3 0.00 0.00 0.00 59 1008.8
20220811090034 21 86 1.6 6.4 0.00 0.00 0.00 58 1009.0
20220811084529 22 76 1.6 16.1 0.00 0.00 0.00 56 1009.1
20220811083030 22 117 4.8 14.5 0.00 0.00 0.00 55 1009.2
20220811081524 22 81 8.0 20.9 0.00 0.00 0.00 55 1009.3
20220811080020 22 117 8.0 19.3 0.00 0.00 0.00 54 1009.4
20220811074518 22 96 4.8 24.1 0.00 0.00 0.00 53 1009.6
20220811073014 22 105 6.4 19.3 0.00 0.00 0.00 53 1009.8
20220811071515 22 101 6.4 24.1 0.00 0.00 0.00 52 1009.9
20220811070009 22 82 1.6 17.7 0.00 0.00 0.00 52 1010.0
20220811064512 22 94 4.8 22.5 0.00 0.00 0.00 52 1010.2
20220811063007 22 69 4.8 17.7 0.00 0.00 0.00 52 1010.1
20220811061504 22 61 8.0 17.7 0.00 0.00 0.00 51 1010.1
20220811060003 23 84 4.8 19.3 0.00 0.00 0.00 51 1010.1
20220811054600 23 78 6.4 20.9 0.00 0.00 0.00 50 1010.3
20220811053055 23 71 8.0 24.1 0.00 0.00 0.00 50 1010.2
20220811050041 23 104 3.2 17.7 0.00 0.00 0.00 49 1010.3
20220811044534 23 64 6.4 19.3 0.00 0.00 0.00 47 1010.2
20220811043029 24 76 11.3 22.5 0.00 0.00 0.00 47 1010.2
20220811041526 24 79 6.4 29.0 0.00 0.00 0.00 46 1010.2
20220811040034 25 97 6.4 24.1 0.00 0.00 0.00 46 1010.1
20220811034528 25 80 4.8 27.4 0.00 0.00 0.00 45 1010.1
20220811033024 25 84 6.4 24.1 0.00 0.00 0.00 45 1010.0
20220811030129 26 81 3.2 19.3 0.00 0.00 0.00 45 1009.8
20220811024602 26 45 11.3 22.5 0.00 0.00 0.00 44 1009.5
20220811023100 26 67 9.7 27.4 0.00 0.00 0.00 43 1009.3
20220811021614 26 61 11.3 25.7 0.00 0.00 0.00 43 1009.2
20220811020051 27 66 14.5 30.6 0.00 0.00 0.00 43 1009.2
20220811014534 27 91 6.4 25.7 0.00 0.00 0.00 44 1009.0
20220811013036 28 78 9.7 30.6 0.00 0.00 0.00 44 1009.0
20220811011605 28 86 9.7 27.4 0.00 0.00 0.00 44 1008.7
20220811010031 29 97 8.0 22.5 0.00 0.00 0.00 45 1008.7
20220811004533 30 76 4.8 24.1 0.00 0.00 0.00 46 1008.6